DLH5248 EDDL-EHAM

Flight info

Callsign DLH5248
Flight time 0h 35m
Altitude 18000
Route SONEB6Z/05R SONEB P55 RKN
Aircraft A20N/M-SDE2E3FGHIRWXY/LB1

Departure

Time 2026-05-05 18:59
Airport Düsseldorf Airport (EDDL)

Arrival

Time 2026-05-05 19:34
Airport Amsterdam Airport Schiphol (EHAM)
Time Latitude Longitude Altitude Speed Heading
2026-05-05 18:40 51.27480 6.75701 129 ft 0 kts 62°
2026-05-05 18:45 51.27479 6.75699 129 ft 1 kts 62°
2026-05-05 18:46 51.27475 6.75686 124 ft 1 kts 57°
2026-05-05 18:46 51.27470 6.75674 123 ft 1 kts 49°
2026-05-05 18:46 51.27464 6.75664 126 ft 1 kts 34°
2026-05-05 18:46 51.27456 6.75656 127 ft 1 kts
2026-05-05 18:47 51.27449 6.75654 127 ft 0 kts 331°
2026-05-05 18:49 51.27468 6.75638 124 ft 7 kts 333°
2026-05-05 18:49 51.27543 6.75579 123 ft 9 kts 335°
2026-05-05 18:49 51.27609 6.75534 122 ft 10 kts 343°
2026-05-05 18:50 51.27654 6.75500 124 ft 10 kts 332°
2026-05-05 18:50 51.27690 6.75470 124 ft 0 kts 332°
2026-05-05 18:51 51.27690 6.75469 124 ft 1 kts 332°
2026-05-05 18:51 51.27693 6.75467 124 ft 3 kts 332°
2026-05-05 18:51 51.27738 6.75431 120 ft 12 kts 334°
2026-05-05 18:51 51.27774 6.75405 119 ft 7 kts 336°
2026-05-05 18:52 51.27802 6.75383 118 ft 0 kts 332°
2026-05-05 18:52 51.27805 6.75383 119 ft 0 kts 347°
2026-05-05 18:52 51.27808 6.75382 119 ft 0 kts 346°
2026-05-05 18:53 51.27825 6.75367 119 ft 7 kts 334°
2026-05-05 18:53 51.27827 6.75364 119 ft 0 kts 332°
2026-05-05 18:55 51.27837 6.75356 119 ft 5 kts 330°
2026-05-05 18:55 51.27886 6.75314 119 ft 0 kts 333°
2026-05-05 18:55 51.27886 6.75315 119 ft 0 kts 333°
2026-05-05 18:57 51.27896 6.75306 119 ft 5 kts 333°
2026-05-05 18:57 51.27946 6.75276 114 ft 10 kts 349°
2026-05-05 18:57 51.28018 6.75323 114 ft 12 kts 48°
2026-05-05 18:58 51.28021 6.75329 115 ft 0 kts 50°
2026-05-05 18:58 51.28085 6.75455 118 ft 52 kts 52°
2026-05-05 18:58 51.28491 6.76291 120 ft 134 kts 52°
2026-05-05 18:58 51.29138 6.77669 531 ft 167 kts 49°
2026-05-05 18:59 51.29892 6.79220 1302 ft 183 kts 51°
2026-05-05 18:59 51.30658 6.80939 1995 ft 201 kts 54°
2026-05-05 18:59 51.31504 6.82844 2724 ft 219 kts 54°
2026-05-05 18:59 51.32415 6.84901 3495 ft 235 kts 55°
2026-05-05 19:00 51.33272 6.86875 4176 ft 253 kts 54°
2026-05-05 19:00 51.34500 6.89012 4638 ft 268 kts 40°
2026-05-05 19:00 51.36077 6.90528 4735 ft 266 kts 20°
2026-05-05 19:00 51.37892 6.91164 4844 ft 268 kts 11°
2026-05-05 19:01 51.39710 6.91659 4948 ft 269 kts 11°
2026-05-05 19:01 51.41556 6.92156 5022 ft 270 kts 10°
2026-05-05 19:01 51.43406 6.92655 5026 ft 269 kts 10°
2026-05-05 19:01 51.45253 6.93152 5025 ft 269 kts 10°
2026-05-05 19:02 51.47102 6.93646 5024 ft 269 kts 11°
2026-05-05 19:02 51.48954 6.94079 5024 ft 269 kts
2026-05-05 19:02 51.50830 6.94029 5023 ft 271 kts 354°
2026-05-05 19:02 51.52691 6.93522 5026 ft 271 kts 351°
2026-05-05 19:03 51.54546 6.92992 5032 ft 271 kts 352°
2026-05-05 19:03 51.56417 6.92477 5155 ft 274 kts 351°
2026-05-05 19:03 51.58279 6.91964 5779 ft 276 kts 351°
2026-05-05 19:03 51.60168 6.91442 6888 ft 276 kts 350°
2026-05-05 19:04 51.62076 6.90911 7885 ft 281 kts 350°
2026-05-05 19:04 51.64021 6.90371 8844 ft 287 kts 349°
2026-05-05 19:04 51.66004 6.89820 9803 ft 292 kts 349°
2026-05-05 19:04 51.67961 6.89273 10457 ft 307 kts 349°
2026-05-05 19:05 51.69298 6.88900 10650 ft 324 kts 349°
2026-05-05 19:05 51.71588 6.88186 10999 ft 346 kts 345°
2026-05-05 19:05 51.73942 6.87280 11800 ft 351 kts 346°
2026-05-05 19:05 51.76337 6.86367 12679 ft 355 kts 346°
2026-05-05 19:06 51.78763 6.85445 13503 ft 362 kts 346°
2026-05-05 19:06 51.81234 6.84506 14239 ft 368 kts 346°
2026-05-05 19:06 51.83742 6.83550 14992 ft 372 kts 346°
2026-05-05 19:06 51.86277 6.82582 15134 ft 372 kts 347°
2026-05-05 19:07 51.87933 6.81948 15208 ft 367 kts 347°
2026-05-05 19:07 51.90363 6.80702 15318 ft 369 kts 333°
2026-05-05 19:07 51.92442 6.78268 15430 ft 369 kts 313°
2026-05-05 19:07 51.94106 6.75068 15545 ft 373 kts 308°
2026-05-05 19:08 51.95712 6.71773 15650 ft 372 kts 307°
2026-05-05 19:08 51.97311 6.68467 15762 ft 373 kts 308°
2026-05-05 19:08 51.98913 6.65171 15868 ft 371 kts 308°
2026-05-05 19:08 52.00517 6.61890 15813 ft 371 kts 308°
2026-05-05 19:09 52.02127 6.58607 15565 ft 371 kts 308°
2026-05-05 19:09 52.03711 6.55378 15309 ft 367 kts 308°
2026-05-05 19:09 52.05325 6.52087 15061 ft 369 kts 308°
2026-05-05 19:09 52.06906 6.48861 14826 ft 368 kts 308°
2026-05-05 19:10 52.08498 6.45608 14591 ft 368 kts 308°
2026-05-05 19:10 52.10090 6.42351 14346 ft 366 kts 308°
2026-05-05 19:10 52.11659 6.39136 14111 ft 361 kts 309°
2026-05-05 19:10 52.13207 6.35953 13740 ft 356 kts 309°
2026-05-05 19:11 52.14742 6.32801 13142 ft 354 kts 309°
2026-05-05 19:11 52.16267 6.29667 12541 ft 352 kts 309°
2026-05-05 19:11 52.17787 6.26538 11948 ft 350 kts 309°
2026-05-05 19:11 52.19293 6.23434 11362 ft 348 kts 308°
2026-05-05 19:12 52.20788 6.20349 10797 ft 346 kts 308°
2026-05-05 19:12 52.22277 6.17272 10301 ft 343 kts 308°
2026-05-05 19:12 52.23717 6.14291 10195 ft 326 kts 308°
2026-05-05 19:12 52.25013 6.11605 10101 ft 324 kts 308°
2026-05-05 19:13 52.26460 6.08607 10014 ft 339 kts 308°
2026-05-05 19:13 52.27913 6.05589 9913 ft 337 kts 308°
2026-05-05 19:13 52.29360 6.02584 9887 ft 336 kts 308°
2026-05-05 19:13 52.30796 5.99596 9886 ft 327 kts 308°
2026-05-05 19:14 52.32144 5.96786 9886 ft 309 kts 308°
2026-05-05 19:14 52.33417 5.94134 9888 ft 292 kts 308°
2026-05-05 19:14 52.34649 5.91565 9892 ft 287 kts 308°
2026-05-05 19:14 52.35888 5.88977 9892 ft 289 kts 308°
2026-05-05 19:15 52.37120 5.86399 9790 ft 286 kts 308°
2026-05-05 19:15 52.38343 5.83840 9437 ft 285 kts 308°
2026-05-05 19:15 52.39570 5.81267 8899 ft 289 kts 308°
2026-05-05 19:15 52.40816 5.78650 8355 ft 291 kts 308°
2026-05-05 19:16 52.42066 5.76022 7830 ft 293 kts 308°
2026-05-05 19:16 52.43322 5.73380 7294 ft 295 kts 308°
2026-05-05 19:16 52.44579 5.70736 6890 ft 292 kts 308°
2026-05-05 19:16 52.45828 5.68103 6388 ft 293 kts 308°
2026-05-05 19:17 52.47084 5.65454 5842 ft 294 kts 309°
2026-05-05 19:17 52.48336 5.62802 5310 ft 295 kts 310°
2026-05-05 19:17 52.49566 5.60158 4792 ft 296 kts 306°
2026-05-05 19:17 52.50282 5.57111 4677 ft 288 kts 280°
2026-05-05 19:18 52.50114 5.53908 4572 ft 279 kts 252°
2026-05-05 19:18 52.49234 5.51115 4462 ft 278 kts 240°
2026-05-05 19:18 52.48165 5.48401 4407 ft 281 kts 238°
2026-05-05 19:18 52.47105 5.45754 4410 ft 278 kts 238°
2026-05-05 19:19 52.46060 5.43072 4411 ft 278 kts 239°
2026-05-05 19:19 52.45036 5.40378 4415 ft 280 kts 240°
2026-05-05 19:19 52.44013 5.37635 4407 ft 281 kts 240°
2026-05-05 19:19 52.43001 5.34901 4406 ft 279 kts 240°
2026-05-05 19:20 52.41994 5.32172 4414 ft 280 kts 240°
2026-05-05 19:20 52.40980 5.29428 4414 ft 282 kts 240°
2026-05-05 19:20 52.39976 5.26713 4404 ft 276 kts 240°
2026-05-05 19:20 52.38967 5.23989 4411 ft 283 kts 240°
2026-05-05 19:21 52.37940 5.21228 4407 ft 285 kts 240°
2026-05-05 19:21 52.36918 5.18477 4409 ft 280 kts 240°
2026-05-05 19:21 52.35910 5.15768 4408 ft 281 kts 240°
2026-05-05 19:21 52.34897 5.13044 4406 ft 279 kts 240°
2026-05-05 19:22 52.33869 5.10357 4407 ft 280 kts 238°
2026-05-05 19:22 52.32791 5.07726 4407 ft 282 kts 238°
2026-05-05 19:22 52.31740 5.05177 4407 ft 284 kts 237°
2026-05-05 19:22 52.30642 5.02509 4404 ft 279 kts 237°
2026-05-05 19:23 52.29564 4.99882 4412 ft 278 kts 237°
2026-05-05 19:23 52.28497 4.97260 4404 ft 277 kts 238°
2026-05-05 19:23 52.27410 4.94618 4414 ft 283 kts 237°
2026-05-05 19:23 52.26316 4.91959 4403 ft 284 kts 237°
2026-05-05 19:24 52.25204 4.89293 4403 ft 284 kts 237°
2026-05-05 19:24 52.24097 4.86641 4240 ft 282 kts 237°
2026-05-05 19:24 52.22997 4.84012 3961 ft 278 kts 237°
2026-05-05 19:24 52.21904 4.81391 3530 ft 280 kts 237°
2026-05-05 19:25 52.20815 4.78777 3206 ft 277 kts 237°
2026-05-05 19:25 52.19730 4.76173 3108 ft 282 kts 237°
2026-05-05 19:25 52.18650 4.73575 3016 ft 276 kts 237°
2026-05-05 19:25 52.17590 4.70972 2997 ft 275 kts 237°
2026-05-05 19:26 52.16528 4.68353 2981 ft 277 kts 237°
2026-05-05 19:26 52.15469 4.65727 2980 ft 278 kts 237°
2026-05-05 19:26 52.14592 4.62956 2984 ft 275 kts 257°
2026-05-05 19:26 52.14509 4.59874 2986 ft 273 kts 281°
2026-05-05 19:27 52.14800 4.56840 2978 ft 269 kts 282°
2026-05-05 19:27 52.15098 4.53859 2922 ft 263 kts 282°
2026-05-05 19:27 52.15376 4.50975 2838 ft 253 kts 282°
2026-05-05 19:27 52.15682 4.48222 2744 ft 241 kts 292°
2026-05-05 19:28 52.16530 4.46055 2637 ft 218 kts 326°
2026-05-05 19:28 52.17817 4.45128 2531 ft 194 kts
2026-05-05 19:28 52.19017 4.45614 2439 ft 174 kts 38°
2026-05-05 19:28 52.19671 4.47168 2259 ft 170 kts 77°
2026-05-05 19:29 52.19643 4.49093 2079 ft 171 kts 92°
2026-05-05 19:29 52.19508 4.51069 2069 ft 172 kts 85°
2026-05-05 19:29 52.19780 4.52928 2230 ft 169 kts 57°
2026-05-05 19:29 52.20557 4.54267 2374 ft 159 kts 40°
2026-05-05 19:30 52.21387 4.55474 2802 ft 161 kts 43°
2026-05-05 19:30 52.22187 4.56825 3118 ft 169 kts 47°
2026-05-05 19:30 52.22930 4.58298 3108 ft 167 kts 52°
2026-05-05 19:30 52.23577 4.59870 3057 ft 168 kts 56°
2026-05-05 19:31 52.24155 4.61534 2755 ft 167 kts 58°
2026-05-05 19:31 52.24754 4.63112 2403 ft 159 kts 54°
2026-05-05 19:31 52.25338 4.64549 2097 ft 147 kts 55°
2026-05-05 19:31 52.25871 4.65863 1782 ft 130 kts 54°
2026-05-05 19:32 52.26341 4.67067 1444 ft 123 kts 55°
2026-05-05 19:32 52.26792 4.68243 1066 ft 119 kts 55°
2026-05-05 19:32 52.27241 4.69406 776 ft 125 kts 55°
2026-05-05 19:32 52.27681 4.70573 540 ft 118 kts 54°
2026-05-05 19:33 52.28112 4.71672 381 ft 113 kts 52°
2026-05-05 19:33 52.28549 4.72786 216 ft 122 kts 53°
2026-05-05 19:33 52.28956 4.73828 59 ft 120 kts 53°
2026-05-05 19:33 52.29392 4.74943 16 ft 94 kts 60°
2026-05-05 19:34 52.29552 4.75413 14 ft 4 kts 107°
2026-05-05 19:34 52.29515 4.75471 13 ft 10 kts 143°
2026-05-05 19:34 52.29511 4.75475 13 ft 0 kts 146°
2026-05-05 19:35 52.29474 4.75516 15 ft 6 kts 144°
2026-05-05 19:35 52.29442 4.75593 12 ft 10 kts 100°
2026-05-05 19:35 52.29469 4.75712 13 ft 12 kts 62°
2026-05-05 19:35 52.29502 4.75836 14 ft 13 kts 69°
2026-05-05 19:36 52.29543 4.75986 12 ft 16 kts 62°
2026-05-05 19:36 52.29605 4.76149 12 ft 17 kts 57°
2026-05-05 19:36 52.29673 4.76329 10 ft 20 kts 59°
2026-05-05 19:36 52.29742 4.76511 11 ft 18 kts 58°
2026-05-05 19:37 52.29811 4.76686 14 ft 18 kts 58°
2026-05-05 19:37 52.29882 4.76841 15 ft 17 kts 40°
2026-05-05 19:37 52.29955 4.76975 17 ft 15 kts 56°
2026-05-05 19:37 52.30014 4.77124 15 ft 17 kts 57°
2026-05-05 19:38 52.30080 4.77295 14 ft 18 kts 59°
2026-05-05 19:38 52.30158 4.77469 12 ft 20 kts 45°
2026-05-05 19:38 52.30223 4.77538 14 ft 10 kts 20°
2026-05-05 19:38 52.30282 4.77547 16 ft 7 kts
2026-05-05 19:39 52.30330 4.77563 16 ft 8 kts 11°
2026-05-05 19:39 52.30393 4.77574 16 ft 10 kts
2026-05-05 19:39 52.30466 4.77581 16 ft 9 kts
2026-05-05 19:39 52.30539 4.77568 15 ft 12 kts 339°
2026-05-05 19:40 52.30621 4.77494 13 ft 15 kts 316°
2026-05-05 19:40 52.30670 4.77350 8 ft 16 kts 345°
2026-05-05 19:40 52.30703 4.77344 8 ft 0 kts